Location: Archemont
(49.1579°N, 1.7598°E)
Time: 09:26:03
(UTC+00:00)

Altair - Pass Details

Date: 25 April 2024
Orbit: 1501 x 1682 km, 47.2° (Epoch: 17 May)

Event Time Altitude Azimuth Distance (km) Brightness Sun altitude
Rises 17:22:15 0° 226° (SW) 4,925 10.8 14.8°
Reaches altitude 10° 17:25:31 10° 222° (SW) 3,935 10.3 14.3°
Maximum altitude 17:35:11 53° 150° (SSE) 1,969 8.1 12.7°
Drops below altitude 10° 17:44:38 10° 77° (ENE) 3,852 9.1 11.2°
Sets 17:47:48 0° 73° (ENE) 4,816 9.5 10.7°
